Fairfield, CA

3:27 AM PDT on May 27, 2018 (GMT -0700)
Travis Air Force Base

Weather History for KSUU - June, 2013

Change the Weather History Date:

Wednesday, June 12, 2013

  Actual Average Record
Temperature  
Mean Temperature 70 °F -  
Max Temperature 84 °F 81 °F 98 °F (2015)
Min Temperature 56 °F 54 °F 48 °F (2017)
Cooling Degree Days 4    
Growing Degree Days 20 (Base 50)    
Moisture  
Dew Point 48 °F    
Average Humidity 52    
Maximum Humidity 85    
Minimum Humidity 28    
Precipitation  
Precipitation 0.00 in - - ()
Sea Level Pressure  
Sea Level Pressure 29.90 in    
Wind  
Wind Speed 17 mph (WSW)    
Max Wind Speed 26 mph    
Max Gust Speed 32 mph    
Visibility 10 miles    
Events      
Averages and records for this station are not official NWS values.
T = Trace of Precipitation, MM = Missing Value Source: NWS Daily Summary

Daily Weather History Graph

Daily Weather History Graph

Search for Another Location

Airport or City:

Astronomy

Jun. 12, 2013 Rise Set
Actual Time 5:43 AM PDT 8:31 PM PDT
Civil Twilight 5:12 AM PDT 9:03 PM PDT
Nautical Twilight 4:32 AM PDT 9:42 PM PDT
Astronomical Twilight 3:47 AM PDT 10:27 PM PDT
Moon 9:25 AM PDT (6/12) 11:13 PM PDT (6/12)
Length of Visible Light 15h 51m
Length of Day
14h 47m
Waxing Crescent, 15% of the Moon is Illuminated
Jun 12
Waxing Crescent
Jun 16
First Quarter
Jun 23
Full
Jun 29
Last Quarter
Jul 8
New

Hourly Weather History & Observations

Time (PDT) Temp. Dew Point Humidity Pressure Visibility Wind Dir Wind Speed Gust Speed Precip Events Conditions
12:58 AM 60.4 °F 53.1 °F 77% 29.87 in 10.0 mi WSW 16.1 mph - N/A   Clear
1:58 AM 59.9 °F 52.7 °F 77% 29.88 in 10.0 mi WSW 17.3 mph - N/A   Clear
2:58 AM 58.8 °F 52.7 °F 80% 29.87 in 10.0 mi WSW 17.3 mph - N/A   Clear
3:58 AM 58.5 °F 52.0 °F 79% 29.87 in 10.0 mi WSW 17.3 mph - N/A   Clear
4:58 AM 57.0 °F 52.7 °F 85% 29.88 in 10.0 mi WSW 18.4 mph - N/A   Clear
5:58 AM 56.1 °F 49.5 °F 78% 29.90 in 10.0 mi WSW 16.1 mph - N/A   Clear
6:58 AM 57.7 °F 49.3 °F 73% 29.91 in 10.0 mi WSW 13.8 mph - N/A   Clear
7:58 AM 62.4 °F 48.6 °F 60% 29.93 in 10.0 mi WSW 15.0 mph - N/A   Clear
8:55 AM 66.6 °F 48.4 °F 52% 29.93 in 10.0 mi SW 16.1 mph - N/A   Clear
9:55 AM 71.2 °F 47.1 °F 42% 29.94 in 10.0 mi SW 10.4 mph - N/A   Unknown
10:55 AM 74.8 °F 47.1 °F 37% 29.93 in - WSW 10.4 mph - N/A   Clear
11:55 AM 77.7 °F 46.4 °F 33% 29.93 in 10.0 mi SW 12.7 mph - N/A   Partly Cloudy
12:58 PM 80.4 °F 47.5 °F 31% 29.93 in 10.0 mi WSW 16.1 mph - N/A   Partly Cloudy
1:58 PM 82.9 °F 48.0 °F 29% 29.91 in 10.0 mi WSW 15.0 mph 19.6 mph N/A   Clear
2:58 PM 83.8 °F 47.3 °F 28% 29.90 in 10.0 mi WSW 19.6 mph 25.3 mph N/A   Clear
3:58 PM 83.3 °F 46.9 °F 28% 29.89 in 10.0 mi WSW 23.0 mph 28.8 mph N/A   Clear
4:58 PM 82.0 °F 46.4 °F 29% 29.89 in 10.0 mi WSW 26.5 mph - N/A   Clear
5:58 PM 80.8 °F 46.9 °F 30% 29.88 in 10.0 mi WSW 23.0 mph 28.8 mph N/A   Clear
6:58 PM 75.4 °F 46.8 °F 36% 29.89 in 10.0 mi WSW 21.9 mph - N/A   Clear
7:58 PM 70.5 °F 47.3 °F 44% 29.89 in 10.0 mi WSW 26.5 mph 32.2 mph N/A   Clear
8:58 PM 66.2 °F 46.8 °F 50% 29.89 in 10.0 mi SW 16.1 mph - N/A   Clear
9:58 PM 64.8 °F 45.7 °F 50% 29.90 in 10.0 mi SW 16.1 mph - N/A   Clear
10:58 PM 60.6 °F 45.7 °F 58% 29.91 in 10.0 mi SW 18.4 mph - N/A   Clear
11:58 PM 58.3 °F 45.1 °F 62% 29.91 in 10.0 mi SW 20.7 mph - N/A   Clear